SL-16 DEB, 24284

Orbit data source: Space-Track

SL-16 DEB, 24284 is space debris in LEO originally from a launch on Tue, 31 Oct 1995 UTC launched from the Tyuratam Missile And Space Complex (TTMTR). Debris objects in space refer to the collection of defunct objects orbiting the Earth. Examples of debris include non-operational satellites, rocket bodies, and fragments generated from explosions, collisions, or faulty payload assembly.

Loading next visibility...
Identifier
24284, 1995-058G
Orbit
LEO
Country
Flag of CISCIS
Related business
Manufacturer
Unknown
Mission
Spacecraft
Bus & Motor
Unknown
Mass
Unknown
Launch date (UTC)
1995-10-31 (30 years ago)
Launch vehicle
Unknown
Launch site
Tyuratam Missile And Space Complex (TTMTR)
Object type
Payload
Rocket body
Debris
Shape & HBR
Unknown
Radar Cross Section
Small (<0.1 m²)

Expand to show TLE details & history
Last TLE update: 1 day ago

TLE from 1 day ago
0 SL-16 DEB
1 24284U 95058G   25260.03340608  .00000272  00000-0  14997-3 0  9990
2 24284  70.8602 264.0017 0012544 197.4172 162.6524 14.20322494544956
Epoch: 2025-09-17T00:48Z
TLE epoch observation values (Epoch: 2025-09-17T00:48:06.285Z)
Latitude
-0.00001°
Longitude
-104.23966°
Altitude
835.285 km
Speed
7.431 km/s
True Right ascension
17h 36m 00s
True Declination
0° 00' 00"
Sunlit
Object was in daylight at epoch
Visualization orbit readout
Latitude
Unknown
Longitude
Unknown
Altitude
Unknown
Speed
Unknown
Apparent Right ascension
Unknown
Apparent Declination
Unknown
Sunlit
N/A
Visualization observer readout
Local Sidereal Time
00:23:50
Azimuth
Unknown
Elevation
Unknown
Doppler factor
Unknown
Orbital elements
Apogee altitude
831.228 km
Perigee altitude
813.164 km
Semi-major axis
7,200.333 km
Eccentricity
0.00125
Inclination
70.8602°
RAAN
264.0017°
Arg. of periapsis
197.4172°
True anomaly
162.6952°
Mean anomaly
162.6524°
Eccentric anomaly
162.6738°
Mean motion
3.55234 °/min
Orbital period
101.34 mins
BSTAR
0.00014997
Loading maneuver chart data...
Computing Atmospheric mass density...
Loading historical data...
Loading historical data...
Loading historical data...
Loading historical data...
Loading historical data...
Loading historical data...
Loading historical data...

Documentation

Showing up to 5 results
|